Regional Weather Roundup
Issued by NWS New Orleans/Baton Rouge, LA

Home | Current Version | Previous Version | Graphics & Text | Print | Product List | Glossary On
Versions: 1 2 3 4 5 6 7 8 9 10 11 12 13 14 15 16 17 18 19 20 21 22 23 24 25 26 27 28 29 30 31 32 33 34 35 36 37 38 39 40 41 42 43 44 45 46 47 48 49 50
691
ASUS44 KLIX 272101
RWRLIX
NEW ORLEANS REGIONAL WEATHER ROUNDUP
NATIONAL WEATHER SERVICE NEW ORLEANS LA
400 PM CDT SUN JUL 27 2014

NOTE: "FAIR" INDICATES FEW OR NO CLOUDS BELOW 12,000 FEET WITH NO
      SIGNIFICANT WEATHER AND/OR OBSTRUCTIONS TO VISIBILITY.
      SKY/WX - SKY CONDITION AND SIGNIFICANT WEATHER.
      TMP - AIR TEMPERATURE.     DP    - DEWPOINT TEMPERATURE.
      RH  - RELATIVE HUMIDITY.   PRES  - PRESSURE.
      HI  - HEAT INDEX.          WCI   - WIND CHILL INDEX.

*  THESE STATIONS ARE NOT NWS OR FAA STATIONS AND ARE NOT UNDER
   NWS QUALITY CONTROL.

LAZ038-040-048-061>063-065>067-069-272200-
SOUTHEAST LOUISIANA

CITY           SKY/WX    TMP DP  RH WIND       PRES   REMARKS
N.O. AUDUBON   NOT AVBL
N.O. INTL ARPT MOSUNNY   94  72  48 W13       30.04F HX 102
N.O. LAKEFRONT SUNNY     91  74  57 NW6       30.04F HX 100
N.O. DOWNTOWN* CLOUDY    91  72  52 E6        30.04F HX  98
SLIDELL        MOSUNNY   92  72  51 VRB6      30.03F HX  99
BATON ROUGE    PTSUNNY   92  73  53 VRB6      30.03F HX 100
BOOTHVILLE     SUNNY     88  77  69 SW10      30.07F HX 100
BELLE CHASSE   PTSUNNY   88  73  61 SW7       30.05S HX  95
BOGALUSA*        N/A     93  72  50 W5        30.04F HX 101
GALLIANO*      NOT AVBL
NEW ROADS*     CLOUDY    91  74  56 SW7       30.03F HX 101
GONZALES*      MOCLDY    88  76  67 SW8G20    30.04S HX  99
HAMMOND*       SUNNY     95  68  41 W8        30.05F HX  99
HOUMA*         MOSUNNY   93  70  46 W12       30.05F HX  99
PORT FOURCHON* CLEAR     90  77  66 SW8G14    30.08F HX 102

$$

MSZ070-080>082-272200-
SOUTHERN MISSISSIPPI

CITY           SKY/WX    TMP DP  RH WIND       PRES   REMARKS
MCCOMB         MOSUNNY   90  73  57 VRB3      30.04F HX  98
GULFPORT       MOSUNNY   93  72  50 SW7       30.02F HX 101
BILOXI         SUNNY     91  75  60 SW13      30.02F HX 101
PASCAGOULA     MOSUNNY   91  76  61 VRB6G16   30.02F HX 103
STENNIS ARPT*  MOSUNNY  N/A N/A N/A NW6       30.03F

$$

COASTAL OBSERVATIONS
LAKE AND NEARSHORE STATIONS

STATION/POSITION TIME  TEMP    WIND        PRES    WAVE
                       AIR SEA DIR/SP/G            HT/PER
                 (UTC) (F)     (DEG/KT/KT) (MB)    (FT/S)
PASCAGOULA       2000   89     230/ 11/ 15 1016.9
WAVELAND YACHT   2000   91     280/  3/  5 1016.5
GRAND ISLE       2000   87 86  210/ 11/ 13 1018.8
SOUTHWEST PASS   2000   88 85  240/ 10/ 11 1018.8
NEW CANAL        2000   88 85  360/  3/  4 1017.9
SHELL BEACH      2000   84 83  320/ 12/ 13 1017.5

OFFSHORE STATIONS

STATION/POSITION TIME  TEMP    WIND        PRES    WAVE
                       AIR SEA DIR/SP/G            HT/PER
                 (UTC) (F)     (DEG/KT/KT) (MB)    (FT/S)
64 S DAUPHIN ISL 2003   85 88  270/  8/ 10 1018.5

$$




USA.gov is the U.S. government's official web portal to all federal, state and local government web resources and services.